Tracking 19245 objects as of 21-Aug-2018
HD Live streaming from Space Station
objects crossing your sky now

FENGYUN 1C DEB

Track FENGYUN 1C DEB now!
10-day predictions


NORAD ID: 30448
Int'l Code: 1999-025AFK
Perigee: 825.0 km
Apogee: 861.6 km
Inclination: 99.0 °
Period: 101.6 minutes
Semi major axis: 7214 km
RCS: 0.055 m2 (small)
Launch date: May 10, 1999
Source: People's Republic of China (PRC)
Launch site: Taiyaun Space Center, China (TSC)

Note: This is SATELLITE DEBRIS
aabbcc
Your satellite tracking list
Your tracking list is empty




NASA's NSSDC Master Catalog

Two Line Element Set (TLE):
1 30448U 99025AFK 18232.57589491 +.00000558 +00000-0 +30048-3 0  9994
2 30448 099.0042 263.1802 0025384 122.2923 029.0981 14.16816492593884
Source of the keplerian elements: AFSPC